Regional Weather Roundup
Issued by NWS

Home | Current Version | Previous Version | Text Only | Print | Product List | Glossary Off
Versions: 1 2 3 4 5 6 7 8 9 10 11 12 13 14 15 16 17 18 19 20 21 22 23 24 25 26 27 28 29 30 31 32 33 34 35 36 37 38 39 40 41 42 43 44 45 46 47 48 49 50

000
ASUS43 KMKX 290321
RWRWI

WISCONSIN REGIONAL WEATHER ROUNDUP
NATIONAL WEATHER SERVICE MILWAUKEE/SULLIVAN WI
900 PM CST FRI NOV 28 2014

NOTE: "FAIR" INDICATES FEW OR NO CLOUDS BELOW 12,000 FEET WITH NO
SIGNIFICANT WEATHER AND/OR OBSTRUCTIONS TO VISIBILITY.

WIZ001-002-006>008-014>016-023>028-290400-
NORTHWEST WISCONSIN

CITY           SKY/WX    TMP DP  RH WIND       PRES   REMARKS
SUPERIOR ARPT  CLOUDY    19  14  83 CALM      29.85S
ASHLAND        CLOUDY    18  13  80 CALM      29.86F
HAYWARD        CLOUDY    17  12  80 SE5       29.81F WCI  10
SIREN          CLOUDY    18  13  82 CALM      29.82F
CUMBERLAND     CLOUDY    19  14  79 SE9       29.80F WCI   9
RICE LAKE      CLOUDY    20  15  82 E5        29.83S WCI  13
CHETEK         CLOUDY    20  16  84 E3        29.83R
LADYSMITH      CLOUDY    19  15  87 SE5       29.84S WCI  12
EAU CLAIRE     MOCLDY    23  17  78 E6        29.82F WCI  16
MENOMONIE      CLOUDY    24  20  85 SE7       29.81F WCI  16
NEW RICHMOND   CLOUDY    20  15  82 E6        29.79F WCI  12
OSCEOLA        MOCLDY    21  17  84 E7        29.81F WCI  12
$$

WIZ003>005-009-010-017-018-290400-
NORTH CENTRAL WISCONSIN

CITY           SKY/WX    TMP DP  RH WIND       PRES   REMARKS
MANITOWISH WTR MOCLDY    14  11  91 S3        29.80F
ARBOR VITAE    CLOUDY    17  13  87 SE7       29.80F WCI   7
WOODRUFF       CLOUDY    17  13  87 SE7       29.80F WCI   7
RHINELANDER    PTCLDY    14  11  87 SE8       29.80F WCI   3
EAGLE RIVER    CLOUDY    14  10  84 CALM      29.81F
LAND O LAKES   CLOUDY    15  12  89 S3        29.81F
PHILLIPS       MOCLDY    16  13  88 SE7       29.80F WCI   6
TOMAHAWK       CLOUDY    15  12  88 CALM      29.82F
MEDFORD        MOCLDY    17  15  90 SE3       29.83S
MERRILL        MOCLDY    15  13  90 SE5       29.83F WCI   7
$$

WIZ029-030-035-036-043>047-290400-
CENTRAL WISCONSIN

CITY           SKY/WX    TMP DP  RH WIND       PRES   REMARKS
WAUSAU         MOCLDY    17  14  88 E8        29.84F WCI   7
MOSINEE        CLOUDY    18  18 100 E5        29.87S WCI  11
MARSHFIELD     CLOUDY    21  17  84 E5        29.85R WCI  15
STEVENS POINT  CLOUDY    19  17  89 NE3       29.89R
WAUPACA        CLOUDY    25  21  83 CALM      29.89F
WAUTOMA        MIX PCPN  27  25  93 SE6       29.88F FOG     WCI  20
WISC RAPIDS    MIX PCPN  23  18  81 CALM      29.89R
CAMP DOUGLAS   CLOUDY    23  23 100 E6        29.84F WCI  16
$$

WIZ011>013-019>022-031-037>040-048>050-290400-
NORTHEAST WISCONSIN

CITY           SKY/WX    TMP DP  RH WIND       PRES   REMARKS
ANTIGO         MOCLDY    11  10  92 SE3       29.85F
SHAWANO        CLOUDY    22  19  89 N3        29.91F
OCONTO         CLOUDY    21  20  96 CALM      29.92F
STURGEON BAY   CLOUDY    25  21  86 CALM      29.92F
GREEN BAY      CLOUDY    25  23  92 NE5       29.90F FOG     WCI  19
MANITOWOC      CLOUDY    30  26  85 S8        29.91F WCI  22
APPLETON       CLOUDY    27  19  74 SE6       29.89F WCI  20
CLINTONVILLE   CLOUDY    21  21 100 CALM      29.90F
OSHKOSH        CLOUDY    27  21  78 MISG      29.88F
$$

WIZ032>034-041-042-053>061-290400-
SOUTHWEST WISCONSIN

CITY           SKY/WX    TMP DP  RH WIND       PRES   REMARKS
LA CROSSE      CLOUDY    27  20  75 E3        29.84F
SPARTA         MOCLDY    24  20  87 CALM      29.86S
VIROQUA        CLOUDY    24  22  92 SE9       29.80F WCI  14
BOSCOBEL       CLOUDY    27  22  81 CALM      29.84F
PRAIRIE DU CHI MOCLDY    29  23  79 E6        29.82F WCI  22
PLATTEVILLE    MOCLDY    29  27  92 CALM      29.84F
$$

WIZ056-057-062-063-064-067-068-290400-
SOUTH CENTRAL WISCONSIN

CITY           SKY/WX    TMP DP  RH WIND       PRES   REMARKS
REEDSBURG      CLOUDY    24  22  92 CALM      29.84F
BARABOO/DELLS  CLOUDY    24  22  92 E3        29.84F FOG
LONE ROCK      CLOUDY    30  22  72 E6        29.86F WCI  24
MINERAL POINT  CLOUDY    30  28  93 SE7       29.83F FOG     WCI  23
MADISON        CLOUDY    27  23  85 SE6       29.87F WCI  20
MIDDLETON      CLOUDY    29  26  86 SE5       29.86F WCI  24
WATERTOWN      CLOUDY    28  27  94 SE3       29.88S
MONROE         CLOUDY    32  30  93 S10       29.85F WCI  24
JANESVILLE     CLOUDY    32  30  93 S6        29.88S WCI  26
$$

WIZ051-052-058>065-066-070>072-290400-
SOUTHEAST WISCONSIN

CITY           SKY/WX    TMP DP  RH WIND       PRES   REMARKS
MILWAUKEE      CLOUDY    32  26  78 S10       29.90F WCI  24
WAUKESHA       MIX PCPN  28  27  93 CALM      29.91S
MILWAUKEE/TIMM MIX PCPN  32  27  80 S6        29.92F WCI  26
RACINE         CLOUDY    33  27  78 S10       29.94S WCI  25
BURLINGTON     CLOUDY    28  26  94 S3        29.90S
KENOSHA        CLOUDY    31  26  82 S7        29.91F WCI  24
FOND DU LAC    CLOUDY    30  25  81 S10       29.87F WCI  21
SHEBOYGAN      CLOUDY    30  25  81 S12       29.91F WCI  20
WEST BEND      CLOUDY    30  27  86 S3        29.91S
JUNEAU         CLOUDY    28  25  91 SE10      29.87F WCI  18
$$

LSZ147-162-290400-
LAKE SUPERIOR

STATION/POSITION TIME  TEMP    WIND        PRES    WAVE
                       AIR SEA DIR/SP/G            HT/PER
                 (UTC) (F)     (DEG/KT/KT) (MB)    (FT/S)
DEVILS ISLAND    0300   21     160/  9/ 12 1011.8F
PORT WING        0240   18     150/  2/  3 1011.2F
SAXON HARBOR     0200   19      CALM  /  6 1011.9F
$$

LMZ867-665-643>646-290400-
LAKE MICHIGAN

STATION/POSITION TIME  TEMP    WIND        PRES    WAVE
                       AIR SEA DIR/SP/G            HT/PER
                 (UTC) (F)     (DEG/KT/KT) (MB)    (FT/S)
CHAMBERS ISLAND  0200   29     220/  3/  8 1013.5F
N MID LAKE BUOY  0250   31 42  170/ 21/ 25 1014.6F   5/ 6
NORTHPORT PIER   0222   31     160/ 14     1013.5F
KEWAUNEE LAKESHO 0300   29     230/  1/  5 1012.4F
SHEBOYGAN LAKESH 0300   33 36  200/ 15/ 17 1014.0F
PORT WASHINGTON  0301   32     230/  5/ 12 1014.2R
MILWAUKEE LAKESH 0300   34     170/ 13/ 15   N/A
S MID LAKE BUOY  0250   36 42  180/ 21/ 25 1015.0R   6/ 6
KENOSHA   LAKESH 0300   34     180/ 12/ 16 1012.9F
$$

TC  - TEMPERATURE IN CELSIUS
VSB - VISIBILITY IN STATUTE MILES
WCI - WIND CHILL INDEX
HX  - HEAT INDEX



USA.gov is the U.S. government's official web portal to all federal, state and local government web resources and services.